Time,TemperatureF,DewpointF,PressureIn,WindDirection,WindDirectionDegrees,WindSpeedMPH,WindSpeedGustMPH,Humidity,HourlyPrecipIn,Conditions,Clouds,dailyrainin,SoftwareType,DateUTC
2017-03-22 00:08:00,16.0,12.0,30.49,ESE,122,9.0,-999.0,85,-99.99,,,-99.99,,2017-03-22 05:08:00,
2017-03-22 00:45:00,17.0,13.0,30.46,North,-9999,-999.9,-999.0,85,-99.99,,,-99.99,,2017-03-22 05:45:00,
2017-03-22 01:06:00,17.0,13.0,30.46,SE,135,10.0,-999.0,85,-99.99,,,-99.99,,2017-03-22 06:06:00,
2017-03-22 01:25:00,17.0,13.0,30.45,SE,137,12.0,-999.0,85,-99.99,,,-99.99,,2017-03-22 06:25:00,
2017-03-22 02:06:00,18.0,14.0,30.43,SE,133,13.0,-999.0,84,-99.99,,,-99.99,,2017-03-22 07:06:00,
2017-03-22 02:25:00,18.0,14.0,30.43,SE,126,13.0,-999.0,85,-99.99,,,-99.99,,2017-03-22 07:25:00,
2017-03-22 02:35:00,18.0,14.0,30.42,SE,135,12.0,-999.0,85,-99.99,,,-99.99,,2017-03-22 07:35:00,
2017-03-22 02:55:00,18.0,15.0,30.42,SE,139,15.0,-999.0,86,-99.99,,,-99.99,,2017-03-22 07:55:00,
2017-03-22 03:15:00,19.0,16.0,30.41,SE,146,15.0,-999.0,86,-99.99,,,-99.99,,2017-03-22 08:15:00,
2017-03-22 03:25:00,19.0,16.0,30.41,SE,146,15.0,-999.0,86,-99.99,,,-99.99,,2017-03-22 08:25:00,
2017-03-22 04:06:00,20.0,16.0,30.40,SE,141,16.0,-999.0,86,-99.99,,,-99.99,,2017-03-22 09:06:00,
2017-03-22 04:25:00,20.0,16.0,30.38,SE,141,17.0,-999.0,86,-99.99,,,-99.99,,2017-03-22 09:25:00,
2017-03-22 05:06:00,20.0,16.0,30.37,SE,131,16.0,-999.0,86,-99.99,,,-99.99,,2017-03-22 10:06:00,
2017-03-22 05:35:00,20.0,16.0,30.34,SSE,152,15.0,-999.0,86,-99.99,,,-99.99,,2017-03-22 10:35:00,
2017-03-22 06:25:00,21.0,17.0,30.31,SE,145,17.0,-999.0,86,-99.99,,,-99.99,,2017-03-22 11:25:00,
2017-03-22 07:06:00,21.0,17.0,30.28,ESE,112,17.0,-999.0,85,-99.99,,,-99.99,,2017-03-22 12:06:00,
2017-03-22 08:06:00,21.0,17.0,30.26,SE,126,16.0,-999.0,84,-99.99,,,-99.99,,2017-03-22 13:06:00,
2017-03-22 08:25:00,22.0,18.0,30.26,SE,140,16.0,-999.0,84,-99.99,,,-99.99,,2017-03-22 13:25:00,
2017-03-22 08:38:00,22.0,18.0,30.25,SE,142,15.0,-999.0,84,-99.99,,,-99.99,,2017-03-22 13:38:00,
2017-03-22 08:55:00,22.0,18.0,30.24,SE,135,15.0,-999.0,84,-99.99,,,-99.99,,2017-03-22 13:55:00,
2017-03-22 09:14:00,23.0,19.0,30.21,North,-9999,-999.9,-999.0,83,-99.99,,,-99.99,,2017-03-22 14:14:00,
2017-03-22 09:25:00,23.0,19.0,30.21,SE,134,19.0,-999.0,83,-99.99,,,-99.99,,2017-03-22 14:25:00,
2017-03-22 09:35:00,23.0,19.0,30.19,SE,141,20.0,-999.0,83,-99.99,,,-99.99,,2017-03-22 14:35:00,
2017-03-22 10:36:00,26.0,21.0,30.18,SSE,164,19.0,-999.0,82,-99.99,,,-99.99,,2017-03-22 15:36:00,
2017-03-22 10:57:00,27.0,22.0,30.16,SSE,165,20.0,-999.0,82,-99.99,,,-99.99,,2017-03-22 15:57:00,
2017-03-22 11:15:00,27.0,22.0,30.16,SSE,165,20.0,-999.0,82,-99.99,,,-99.99,,2017-03-22 16:15:00,
2017-03-22 11:25:00,28.0,23.0,30.16,SSE,160,21.0,-999.0,81,-99.99,,,-99.99,,2017-03-22 16:25:00,
2017-03-22 11:58:00,30.0,25.0,30.15,South,189,21.0,-999.0,81,-99.99,,,-99.99,,2017-03-22 16:58:00,
2017-03-22 12:15:00,30.0,25.0,30.14,SSE,157,22.0,-999.0,80,-99.99,,,-99.99,,2017-03-22 17:15:00,
2017-03-22 12:26:00,31.0,26.0,30.14,SSE,160,20.0,-999.0,81,-99.99,,,-99.99,,2017-03-22 17:26:00,
2017-03-22 12:35:00,31.0,26.0,30.13,South,171,19.0,-999.0,81,-99.99,,,-99.99,,2017-03-22 17:35:00,
2017-03-22 12:59:00,31.0,26.0,30.12,SSE,162,19.0,-999.0,81,-99.99,,,-99.99,,2017-03-22 17:59:00,
2017-03-22 13:16:00,32.0,27.0,30.11,South,185,19.0,-999.0,81,-99.99,,,-99.99,,2017-03-22 18:16:00,
2017-03-22 13:26:00,33.0,28.0,30.10,SSE,153,17.0,-999.0,80,-99.99,,,-99.99,,2017-03-22 18:26:00,
2017-03-22 13:46:00,33.0,28.0,30.09,SSE,154,19.0,-999.0,80,-99.99,,,-99.99,,2017-03-22 18:46:00,
2017-03-22 14:06:00,34.0,28.0,30.06,SSE,168,21.0,-999.0,80,-99.99,,,-99.99,,2017-03-22 19:06:00,
2017-03-22 14:26:00,34.0,28.0,30.06,SSE,147,20.0,-999.0,80,-99.99,,,-99.99,,2017-03-22 19:26:00,
2017-03-22 14:46:00,35.0,29.0,30.05,SSE,162,19.0,-999.0,79,-99.99,,,-99.99,,2017-03-22 19:46:00,
2017-03-22 15:26:00,36.0,30.0,30.03,SE,143,19.0,-999.0,78,-99.99,,,-99.99,,2017-03-22 20:26:00,
2017-03-22 15:48:00,36.0,29.0,30.02,SSE,153,18.0,-999.0,77,-99.99,,,-99.99,,2017-03-22 20:48:00,
2017-03-22 16:06:00,37.0,30.0,30.01,SE,144,19.0,-999.0,77,-99.99,,,-99.99,,2017-03-22 21:06:00,
2017-03-22 17:01:00,37.0,31.0,29.99,SE,141,17.0,-999.0,78,-99.99,,,-99.99,,2017-03-22 22:01:00,
2017-03-22 17:15:00,37.0,30.0,29.98,SSE,151,-999.9,-999.0,77,-99.99,,,-99.99,,2017-03-22 22:15:00,
2017-03-22 17:26:00,37.0,31.0,29.97,SSE,150,18.0,-999.0,78,-99.99,,,-99.99,,2017-03-22 22:26:00,
2017-03-22 17:46:00,37.0,31.0,29.96,SE,129,15.0,-999.0,79,-99.99,,,-99.99,,2017-03-22 22:46:00,